[[{"header":{"parameterUnit":"m.s-1","parameterCategory":1,"la1":30.2992,"la2":30.254,"lo1":-89.0895,"lo2":-89.0443,"dy":0.0025,"dx":0.0025,"nx":19,"ny":19,"refTime":"2026-05-10T03:00:00:Z","depth":0,"parameterNumber":2,"parameterNumberName":"U-component_of_WINDS"},"data":[0,0,0,-0.9968,-0.9969,-1.003,-1.003,-1.0112,-1.0113,0,0,0,0,0,0,0,0,0,0,0,-0.9953,-0.9953,-0.9968,-0.997,-1.003,-1.003,-1.0112,-1.0113,0,0,0,0,0,0,0,0,0,0,0,-0.9953,-0.9953,-0.9954,-0.997,-1.003,-1.003,-1.0112,-1.0065,0,0,0,0,0,0,0,0,0,0,-1.0005,-0.9994,-0.9953,-0.9954,-0.997,-1.003,-1.003,-1.0062,-1.0068,-1.0087,0,-1.0104,0,-1.011,-1.0119,-1.0119,0,0,0,-0.9968,-0.9989,-1.0003,-0.9954,-0.9971,-1.003,-1.0002,-1.0065,-1.0071,-1.0094,-1.0105,-1.0108,-1.0111,-1.0119,-1.012,-1.0234,-1.0234,0,0,-0.9965,-0.9965,-0.9999,-1.0007,-0.9998,-1.0,-1.0004,-1.0069,-1.0082,-1.0105,-1.011,-1.0112,-1.012,-1.012,-1.0233,-1.0234,0,0,0,-0.9956,-0.9963,-0.9975,-1.0004,-1.0014,-1.0002,-1.0007,-1.0079,-1.0082,-1.0111,-1.0113,-1.012,-1.0121,-1.0232,-1.0233,-1.0264,0,0,0,-0.9954,-0.9958,-0.9974,-0.9975,-1.0013,-1.0047,-1.0015,-1.0078,-1.0085,-1.0113,-1.012,-1.0122,-1.0232,-1.0233,-1.0262,-1.0279,0,0,0,-0.9948,-0.9957,-0.9967,-0.9975,-1.0001,-1.0046,-1.0054,-1.008,-1.0087,-1.0119,-1.0122,-1.0231,-1.0233,-1.026,-1.0276,-1.0309,0,0,0,-0.9942,-0.9995,-0.9967,-1.0027,-1.0,-1.0064,-1.0053,-1.0101,-1.0132,-1.0121,-1.0232,-1.0233,-1.0259,-1.0274,-1.0307,-1.0337,-1.035,0,0,-1.0009,-1.0003,-1.0037,-1.0015,-1.0084,-1.0055,-1.0129,-1.0157,-1.016,-1.0209,-1.0212,-1.0263,-1.0275,-1.0308,-1.042,-1.043,0,0,0,-1.0059,-1.0084,-1.0102,-1.0131,-1.0153,-1.0173,-1.0189,-1.0199,-1.0241,-1.0185,-1.0283,-1.0291,-1.031,-1.0325,-1.0334,-1.035,-1.024,-1.024,-1.0239,-1.0155,-1.0155,-1.0212,-1.0218,-1.0246,-1.0262,-1.0285,-1.0301,-1.0293,-1.0316,-1.0331,-1.0399,-1.0416,-1.0422,-1.044,-1.0347,-1.0347,-1.0347,-1.0347,-1.0253,-1.0288,-1.0275,-1.0325,-1.0324,-1.0367,-1.0383,-1.0376,-1.0415,-1.0388,-1.0405,-1.0376,-1.0433,-1.0448,-1.0349,-1.0349,-1.0349,-1.0348,-1.0348,-1.0317,-1.0334,-1.0344,-1.0385,-1.0416,-1.042,-1.0458,-1.0456,-1.0454,-1.0471,-1.0486,-1.0486,-1.0485,-1.0478,-1.0478,-1.0479,-1.0479,-1.0479,-1.0479,-1.0379,-1.039,-1.0422,-1.0448,-1.0466,-1.0488,-1.0503,-1.052,-1.0539,-1.0534,-1.0534,-1.0524,-1.0439,-1.0418,-1.0483,-1.0482,-1.0482,-1.0481,-1.0481,-1.048,-1.0456,-1.0506,-1.0523,-1.0553,-1.0584,-1.0579,-1.0614,-1.0628,-1.0647,-1.0632,-1.057,-1.0564,-1.0557,-1.0539,-1.0632,-1.0632,-1.0632,-1.0632,-1.0534,-1.053,-1.0579,-1.0607,-1.0634,-1.0634,-1.069,-1.0701,-1.0709,-1.0718,-1.0703,-1.068,-1.0673,-1.0671,-1.0662,-1.0646,-1.0763,-1.0763,-1.0763,-1.0596,-1.0594,-1.0642,-1.0649,-1.0671,-1.069,-1.0742,-1.0775,-1.0779,-1.0769,-1.0724,-1.0718,-1.068,-1.0668,-1.0658,-1.0644,-1.0614,0,0]},{"header":{"parameterUnit":"m.s-1","parameterCategory":1,"la1":30.2992,"la2":30.254,"lo1":-89.0895,"lo2":-89.0443,"dy":0.0025,"dx":0.0025,"nx":19,"ny":19,"refTime":"2026-05-10T03:00:00:Z","depth":0,"parameterNumber":3,"parameterNumberName":"V-component_of_WINDS"},"data":[0,0,0,-3.3752,-3.3753,-3.3772,-3.3772,-3.3814,-3.3814,0,0,0,0,0,0,0,0,0,0,0,-3.3757,-3.3758,-3.3752,-3.3753,-3.3772,-3.3772,-3.3814,-3.3814,0,0,0,0,0,0,0,0,0,0,0,-3.3757,-3.3757,-3.3758,-3.3753,-3.3772,-3.3772,-3.3814,-3.3793,0,0,0,0,0,0,0,0,0,0,-3.3771,-3.3786,-3.3757,-3.3758,-3.3753,-3.3772,-3.3772,-3.3792,-3.3794,-3.3812,0,-3.3832,0,-3.3824,-3.3818,-3.3818,0,0,0,-3.3745,-3.3784,-3.378,-3.3758,-3.3753,-3.3772,-3.3761,-3.3793,-3.3796,-3.3816,-3.3832,-3.3833,-3.3825,-3.3819,-3.3819,-3.3951,-3.3952,0,0,-3.3744,-3.3766,-3.3778,-3.3782,-3.3781,-3.376,-3.3762,-3.3794,-3.3813,-3.3832,-3.3834,-3.3825,-3.3819,-3.3819,-3.395,-3.3951,0,0,0,-3.3746,-3.3766,-3.376,-3.3781,-3.3783,-3.3761,-3.3763,-3.3812,-3.3808,-3.3834,-3.3826,-3.3819,-3.382,-3.3949,-3.395,-3.4021,0,0,0,-3.3745,-3.3767,-3.376,-3.3774,-3.3783,-3.3798,-3.378,-3.3806,-3.3809,-3.3825,-3.3819,-3.3821,-3.3948,-3.395,-3.4017,-3.405,0,0,0,-3.3752,-3.3768,-3.3774,-3.3775,-3.3784,-3.3797,-3.3795,-3.3806,-3.3804,-3.3818,-3.3821,-3.3947,-3.3949,-3.4013,-3.4044,-3.4091,0,0,0,-3.3766,-3.3837,-3.3776,-3.3852,-3.3785,-3.3841,-3.3794,-3.3835,-3.3856,-3.382,-3.3948,-3.395,-3.4011,-3.404,-3.4087,-3.4134,-3.4156,0,0,-3.3869,-3.3851,-3.3893,-3.3839,-3.3912,-3.3836,-3.3919,-3.3916,-3.3897,-3.3934,-3.3937,-3.4018,-3.4043,-3.409,-3.4273,-3.4291,0,0,0,-3.3933,-3.3964,-3.3979,-3.3999,-3.3999,-3.4001,-3.3984,-3.3983,-3.4013,-3.3921,-3.4047,-3.4062,-3.4088,-3.411,-3.4125,-3.4146,-3.3961,-3.3961,-3.3961,-3.4111,-3.4082,-3.415,-3.4124,-3.4145,-3.4125,-3.4139,-3.4134,-3.41,-3.413,-3.4141,-3.4255,-3.4281,-3.4292,-3.4314,-3.4164,-3.4164,-3.4164,-3.4165,-3.4257,-3.4296,-3.4248,-3.4297,-3.4266,-3.4307,-3.4291,-3.4265,-3.4298,-3.4245,-3.4267,-3.4211,-3.4313,-3.433,-3.417,-3.4169,-3.4168,-3.4168,-3.4167,-3.437,-3.4383,-3.4381,-3.4406,-3.443,-3.44,-3.4434,-3.4405,-3.4378,-3.4399,-3.4407,-3.4405,-3.44,-3.4405,-3.4405,-3.4406,-3.4406,-3.4406,-3.4407,-3.4487,-3.4482,-3.4514,-3.4519,-3.4527,-3.4535,-3.4516,-3.4524,-3.4525,-3.4501,-3.4501,-3.4463,-3.4328,-3.4294,-3.4413,-3.4412,-3.4411,-3.441,-3.441,-3.4645,-3.4605,-3.4654,-3.4663,-3.4666,-3.469,-3.4652,-3.4671,-3.4673,-3.469,-3.4648,-3.4553,-3.4532,-3.452,-3.4492,-3.4654,-3.4654,-3.4654,-3.4654,-3.474,-3.4726,-3.4769,-3.4785,-3.4797,-3.4768,-3.4824,-3.481,-3.4789,-3.4788,-3.4761,-3.4721,-3.471,-3.4696,-3.468,-3.4653,-3.4853,-3.4853,-3.4853,-3.4835,-3.4821,-3.4875,-3.4853,-3.4853,-3.4853,-3.4905,-3.4925,-3.4893,-3.486,-3.4787,-3.4779,-3.4714,-3.4695,-3.4661,-3.4637,-3.4587,0,0]}]]